Погода в Гиганте

Погода в Гиганте : погода сейчас, прогноз погоды и архив. Всё, что Вы хотите узнать о погоде в Гиганте!

Поиск расширенной информации на нашем сайте:

Другие новости

Новости СМИ2

Главная страница сайта

Новости сайта

03.07.2017

Напоминаем, что на нашем специализированном сайте Метеоцентр.Азия вы можете получить высокодетализированные автоматические прогнозы погоды по пунктам России, СНГ и мира в авиационном формате (включающие направление и скорость ветра, видимость, явления погоды, количество и форму облачности, нижнюю и верхнюю границу облачности).

Рекомендуем: приворот вуду, услуги черной ведьмы Софии Драгош

Погода в Гиганте - сегодня

Время (UTC), дата Ветер
(°,м/с) 
Видим.   Явления Облачность Т
(°С)
Тd
(°С)
f(%) Тe
(°С)
Pmin
(гПа)
dP
(гПа)
Po
(мм)
O2
(г/м3)
Тmin Tmax R s Состояние
почвы
00 18.08.17 080 (В) 20000 м    ясно 
+22.2 +8 40 +22  1014.5  0.2  754  280           
03 18.08.17 070 (В) 20000 м    3/0 средняя, верхняя 
[Ac trans|Ci fib]
+20.9 +7.7 43 +21  1015.6  755  281  +20.2        сухая 
06 18.08.17 080 (В) 6-11{11}  20000 м    4/0 верхняя 
[Ci fib]
+27.4 +1.8 19 +27  1016.3  756  276           
09 18.08.17 100 (В) 5{12}  20000 м    9/0 средняя, верхняя 
[Ac trans|Ci fib]
+32.2 +0.5 13 +32  1015.9  -0.3  755  272           
12 18.08.17 080 (В) 6-10{12}  20000 м  пыльный позёмок  9/0 средняя, верхняя 
[Ac trans|Ci fib]
+34.1 -0.5 11 +34  1014.9  -0.9  755  270           
15 18.08.17 080 (В) 4{12}  20000 м    9/0 средняя, верхняя 
[Ac trans|Ci fib]
+32.5 -1.1 12 +33  1014.4  -0.5  754  272    +34.1       
18 18.08.17 100 (В) 20000 м    5/0 средняя, верхняя 
[Ac trans|Ci fib]
+26.1 +0.1 18 +26  1015.2  0.6  755  278           
21 18.08.17 100 (В) 20000 м    8/0 верхняя 
[Ci fib]
+22 +9 43 +22  1016.5  1.2  756  280           
00 19.08.17 060 (СВ) 20000 м    ясно 
+20.9 +10 50 +22  1016.8  0.3  756  281           
03 19.08.17 080 (В) 20000 м    6/0 верхняя 
[Ci fib]
+19.8 +10.5 55 +23  1018  1.1  757  282  +19.8        сухая 
06 19.08.17 090 (В) 20000 м    8/0 верхняя 
[Ci fib]
+27.3 +11.8 38 +31  1018.1  0.4  757  275           
09 19.08.17 090 (В) 5{10}  20000 м    8/0 верхняя 
[Ci fib]
+31.5 +5.5 20 +32  1017.3  -0.7  756  272           
12 19.08.17 090 (В) 5-11{14}  20000 м  пыльный позёмок  4/0 верхняя 
[Ci fib]
+33.8 -0.4 11 +34  1016  -1.2  755  271           
15 19.08.17 100 (В) 4{13}  20000 м    8/0 средняя, верхняя 
[Ac trans|Cc]
+32.8 -1.3 11 +33  1015.8  -0.2  755  272    +33.8       
18 19.08.17 060 (СВ) 20000 м    5/1 600 м средняя, верхняя 
[Sc|Ac trans|Ci fib]
+28.1 -1.8 14 +28  1016.1  0.2  755  276           
21 19.08.17 070 (В) 20000 м    ясно 
+25.3 +4.2 26 +25  1016.1  0.1  755  278           
00 20.08.17 080 (В) 20000 м    ясно 
+22 +8 41 +22  1016.3  0.1  755  280           
03 20.08.17 070 (В) 20000 м    3/0 средняя 
[Ac trans]
+21.8 +3.7 30 +22  1016.9  0.6  756  282  +20.6        сухая 
06 20.08.17 080 (В) 20000 м    8/3 600 м средняя, верхняя 
[Sc diur, vesp|Ac cast|Ci fib]
+26.8 +6.5 27 +27  1016.8  0.1  756  276           
09 20.08.17 080 (В) 7-12{12}  20000 м    8/4 600 м средняя, верхняя 
[Sc diur, vesp|Ac cast|Ci fib]
+32 +3.4 16 +32  1015.7  0.1  755  272           
12 20.08.17 110 (В) 6-10{15}  20000 м  пыльный позёмок  8/3 600 м средняя, верхняя 
[Sc diur, vesp|Ac cast|Ci fib]
+33.8 +2.6 14 +34  1014.4  -1.2  754  270           
15 20.08.17 080 (В) 5{12}  20000 м  пыльный позёмок  9/8 600 м кучево-дожд., средняя 
[Cb calv|Ac cast]
+31.5 +5 19 +32  1013.3  -1.2  753  271    +33.9       
18 20.08.17 090 (В) 6-10{13}  20000 м    9/5 600 м средняя, верхняя 
[Sc diur, vesp|Ac cast|Ci fib]
+26 +13.4 46 +32  1014.6  1.1  754  275           
21 20.08.17 100 (В) 5{14}  20000 м  пыльный позёмок  8/3 600 м средняя, верхняя 
[Sc diur, vesp|Ac cast|Ci fib]
+24.8 +9 37 +25  1014.9  0.2  754  277           
00 21.08.17 080 (В) 4{13}  20000 м    4/0 средняя 
[Ac cast]
+22.3 +10 46 +23  1015.1  0.2  755  279           
Время (UTC), дата Ветер
(°,м/с) 
Видим.   Явления Облачность Т
(°С)
Тd
(°С)
f(%) Тe
(°С)
Pmin
(гПа)
dP
(гПа)
Po
(мм)
O2
(г/м3)
Тmin Tmax R s Состояние
почвы

Для получения пояснительной информации подведите курсор к названию столбца.

ПОГОДА в Гиганте - архив

Всё, что Вы хотите узнать о погоде в Гиганте - удобно и подробно!

Выберите нужную дату (начиная с 1 января 2015* года) и нажмите кнопку "Найти".
Будут отображены архивные сводки погоды по пункту Гигант, начиная с указанной даты.


Отображать данные в формате CSV (для использования в таблицах Excel)


Внимание! Наш архив погоды предназначен исключительно для личного некоммерческого использования в познавательных целях. Если Вам необходимы официальные справки о состоянии погоды (для производственных, юридических, коммерческих и т.п. целей), обращайтесь в органы Росгидромета.

*Примечание: данная дата относится к архиву по метеостанциям СССР (Россия, СНГ, Балтия).
Архив по метеостанциям Зарубежной Европы и Азии (кроме Китая) хранится 10 дней, по другим регионам земного шара (Китай, Африка, Америка, Австралия, Океания) - 1 день.

Гигант - район местоположения метеостанции


Название, широта, долгота, высота метеостанции:
Гигант 46.5°ш. 41.3°д. 79 м над ур. моря [Российская Федерация]

Дополнительная информация

В oтличие oт бoльшинства пoгoдных сайтoв мы публикуем пoдрoбную метеoинфoрмацию в детальнoм прoфессиoнальнoм фoрмате.

Характеристики температуры и влажнoсти вoздуха измеряются на высoте 2 м в тени вдали oт зданий и деревьев.
Скoрoсть ветра измеряется на высoте 10 м (на урoвне рoста челoвека скoрoсть ветра ниже в 1.5-2 раза). Если метеoстанция нахoдится в гoрoде или в лесу, тo скoрoсть ветра занижена на 2-4 м/с пo сравнению с oткрытым местoм. Скoрoсть ветра над акватoриями крупных рек и oзёр, а также на вершинах хoлмoв на 2-5 м/с выше, чем в oбычных услoвиях.
Атмoсфернoе давление в разных тoчках местнoсти мoжет значительнo oтличаться oт давления на метеoстанции, в зависимoсти oт услoвий рельефа (при пoдъёме на 10 м давление пoнижается примернo на 1 мм рт.ст.).